Location: Steilacoom
(47.1700°N, 122.5700°W)
Time: 14:11:17
(UTC-08:00)

ISS - Pass Details

Date: 23 November 2019
Orbit: 411 x 421 km, 51.6° (Epoch: 11 December)

Event Time Altitude Azimuth Distance (km) Brightness Sun altitude
Rises 19:30:10 0° 255° (WSW) 2,355 1.1 -30.6°
Reaches altitude 10° 19:32:17 10° 259° (WSW) 1,496 -0.1 -30.9°
Enters shadow 19:32:39 13° 260° (W) 1,351 -0.4 -31.0°
